When you browse on this site, cookies collect data to enhance your experience and personalize the content and advertising you see.
Visit our Privacy Policy to learn more. By continuing to use the site, you agree to this use of cookies and data.
  • In Switzerland
  • List of Countries
  • For 7 days
  • Water Temperature
  • Satellite Maps
  • Weather Map
  • Weather Widgets
  • user-avatar
    Login

    Hourly Weather Krzyz

    Today, 27 May, Monday

    Time Temperature Precipitation Wind Pressure Humidity
    00:00 +14°C° 0 mm 3 mps 742 mmHg 86%
    01:00 +13°C° 0 mm 3 mps 742 mmHg 88%
    02:00 +13°C° 0 mm 3 mps 742 mmHg 89%
    03:00 +13°C° 0 mm 3 mps 742 mmHg 91%
    04:00 +12°C° 0 mm 3 mps 741 mmHg 92%
    05:00 +14°C° 0 mm 3 mps 741 mmHg 86%
    06:00 +17°C° 0 mm 4 mps 741 mmHg 80%
    07:00 +18°C° 0 mm 4 mps 741 mmHg 74%
    08:00 +20°C° 0 mm 4 mps 741 mmHg 68%
    09:00 +22°C° 0 mm 4 mps 741 mmHg 62%
    10:00 +23°C° 0 mm 4 mps 741 mmHg 57%
    11:00 +25°C° 0.1 mm 4 mps 741 mmHg 56%
    12:00 +25°C° 0.1 mm 4 mps 741 mmHg 55%
    13:00 +26°C° 0.1 mm 4 mps 740 mmHg 54%
    14:00 +25°C° 0.5 mm 3 mps 740 mmHg 57%
    15:00 +25°C° 0.5 mm 3 mps 740 mmHg 60%
    16:00 +24°C° 0.5 mm 3 mps 740 mmHg 63%
    17:00 +23°C° 0.5 mm 2 mps 739 mmHg 68%
    18:00 +21°C° 0.5 mm 2 mps 739 mmHg 74%
    19:00 +20°C° 0.5 mm 2 mps 739 mmHg 79%
    20:00 +19°C° 0.3 mm 2 mps 739 mmHg 83%
    21:00 +19°C° 0.3 mm 3 mps 739 mmHg 87%
    22:00 +18°C° 0.3 mm 3 mps 739 mmHg 91%
    23:00 +18°C° 1.1 mm 4 mps 738 mmHg 91%

    Tomorrow, 28 May, Tuesday

    Time Temperature Precipitation Wind Pressure Humidity
    00:00 +17°C° 1.1 mm 4 mps 738 mmHg 92%
    01:00 +16°C° 1.1 mm 5 mps 737 mmHg 92%
    02:00 +17°C° 0.9 mm 4 mps 737 mmHg 93%
    03:00 +15°C° 0.9 mm 4 mps 737 mmHg 93%
    04:00 +16°C° 0.9 mm 3 mps 736 mmHg 94%
    05:00 +16°C° 0 mm 3 mps 736 mmHg 91%
    06:00 +17°C° 0 mm 3 mps 736 mmHg 89%
    07:00 +17°C° 0 mm 3 mps 736 mmHg 86%
    08:00 +18°C° 0.1 mm 4 mps 736 mmHg 84%
    09:00 +17°C° 0.1 mm 5 mps 736 mmHg 82%
    10:00 +19°C° 0.1 mm 5 mps 736 mmHg 80%
    11:00 +19°C° 0.3 mm 5 mps 736 mmHg 78%
    12:00 +20°C° 0.3 mm 4 mps 736 mmHg 76%
    13:00 +20°C° 0.3 mm 4 mps 737 mmHg 74%
    14:00 +19°C° 0.6 mm 5 mps 737 mmHg 79%
    15:00 +17°C° 0.6 mm 5 mps 737 mmHg 84%
    16:00 +16°C° 0.6 mm 6 mps 737 mmHg 88%
    17:00 +15°C° 0.3 mm 6 mps 737 mmHg 90%
    18:00 +14°C° 0.3 mm 7 mps 738 mmHg 91%
    19:00 +12°C° 0.3 mm 7 mps 738 mmHg 93%
    20:00 +11°C° 1.3 mm 6 mps 739 mmHg 93%
    21:00 +11°C° 1.3 mm 6 mps 739 mmHg 93%
    22:00 +11°C° 1.3 mm 6 mps 740 mmHg 93%
    23:00 +10°C° 0.9 mm 6 mps 740 mmHg 92%

    Day after tomorrow, 29 May, Wednesday

    Time Temperature Precipitation Wind Pressure Humidity
    00:00 +10°C° 0.9 mm 6 mps 741 mmHg 92%
    01:00 +9°C° 0.9 mm 5 mps 741 mmHg 91%
    02:00 +8°C° 0.2 mm 5 mps 742 mmHg 90%
    03:00 +8°C° 0.2 mm 5 mps 742 mmHg 90%
    04:00 +7°C° 0.2 mm 5 mps 743 mmHg 89%
    05:00 +7°C° 0 mm 4 mps 743 mmHg 88%
    06:00 +7°C° 0 mm 4 mps 744 mmHg 87%
    07:00 +7°C° 0 mm 4 mps 744 mmHg 87%
    08:00 +8°C° 0 mm 4 mps 745 mmHg 82%
    09:00 +11°C° 0 mm 4 mps 745 mmHg 77%
    10:00 +12°C° 0 mm 4 mps 746 mmHg 73%
    11:00 +13°C° 0 mm 4 mps 746 mmHg 68%
    12:00 +14°C° 0 mm 4 mps 746 mmHg 62%
    13:00 +15°C° 0 mm 4 mps 746 mmHg 57%
    14:00 +15°C° 0 mm 4 mps 746 mmHg 58%
    15:00 +17°C° 0 mm 4 mps 746 mmHg 58%
    16:00 +17°C° 0 mm 4 mps 746 mmHg 59%
    17:00 +15°C° 0 mm 4 mps 746 mmHg 64%
    18:00 +14°C° 0 mm 3 mps 746 mmHg 70%
    19:00 +14°C° 0 mm 2 mps 746 mmHg 76%
    20:00 +13°C° 0 mm 2 mps 746 mmHg 78%
    21:00 +12°C° 0 mm 2 mps 747 mmHg 80%
    22:00 +10°C° 0 mm 2 mps 747 mmHg 82%
    23:00 +10°C° 0 mm 2 mps 747 mmHg 82%

    30 May, Thursday

    Time Temperature Precipitation Wind Pressure Humidity
    00:00 +10°C° 0 mm 2 mps 747 mmHg 82%
    01:00 +9°C° 0 mm 2 mps 747 mmHg 81%
    02:00 +9°C° 0 mm 2 mps 747 mmHg 80%
    03:00 +9°C° 0 mm 2 mps 747 mmHg 78%
    04:00 +9°C° 0 mm 2 mps 748 mmHg 77%
    05:00 +9°C° 0 mm 2 mps 748 mmHg 75%
    06:00 +10°C° 0 mm 2 mps 748 mmHg 73%
    07:00 +10°C° 0 mm 2 mps 748 mmHg 71%
    08:00 +10°C° 0.1 mm 2 mps 748 mmHg 69%
    09:00 +12°C° 0.1 mm 1 mps 748 mmHg 66%
    10:00 +12°C° 0.1 mm 1 mps 748 mmHg 64%
    11:00 +13°C° 0 mm 1 mps 748 mmHg 63%
    12:00 +13°C° 0 mm 1 mps 748 mmHg 62%
    13:00 +13°C° 0 mm 1 mps 748 mmHg 60%
    14:00 +14°C° 0 mm 1 mps 748 mmHg 58%
    15:00 +15°C° 0 mm 1 mps 747 mmHg 56%
    16:00 +16°C° 0 mm 1 mps 747 mmHg 53%
    17:00 +15°C° 0 mm 1 mps 747 mmHg 58%
    18:00 +14°C° 0 mm 1 mps 747 mmHg 62%
    19:00 +14°C° 0 mm 1 mps 747 mmHg 66%
    20:00 +12°C° 0 mm 2 mps 747 mmHg 69%
    21:00 +10°C° 0 mm 2 mps 747 mmHg 72%
    22:00 +9°C° 0 mm 2 mps 747 mmHg 74%
    23:00 +9°C° 0 mm 2 mps 747 mmHg 77%

    31 May, Friday

    Time Temperature Precipitation Wind Pressure Humidity
    00:00 +9°C° 0 mm 3 mps 746 mmHg 79%
    01:00 +9°C° 0 mm 3 mps 746 mmHg 82%
    02:00 +9°C° 0 mm 3 mps 746 mmHg 84%
    03:00 +9°C° 0 mm 3 mps 745 mmHg 87%
    04:00 +9°C° 0 mm 3 mps 745 mmHg 89%
    05:00 +10°C° 0 mm 3 mps 745 mmHg 87%
    06:00 +12°C° 0 mm 3 mps 744 mmHg 85%
    07:00 +14°C° 0 mm 4 mps 744 mmHg 83%
    08:00 +17°C° 0 mm 4 mps 744 mmHg 78%
    09:00 +18°C° 0 mm 4 mps 743 mmHg 73%
    10:00 +20°C° 0 mm 4 mps 743 mmHg 69%
    11:00 +19°C° 1.2 mm 5 mps 743 mmHg 73%
    12:00 +17°C° 1.2 mm 7 mps 744 mmHg 78%
    13:00 +16°C° 1.2 mm 8 mps 744 mmHg 83%
    14:00 +12°C° 1.5 mm 8 mps 746 mmHg 85%
    15:00 +9°C° 1.5 mm 8 mps 747 mmHg 86%
    16:00 +6°C° 1.5 mm 8 mps 748 mmHg 88%
    17:00 +6°C° 0.2 mm 7 mps 749 mmHg 86%
    18:00 +7°C° 0.2 mm 5 mps 750 mmHg 84%
    19:00 +9°C° 0.2 mm 3 mps 751 mmHg 82%
    20:00 +7°C° 0 mm 4 mps 751 mmHg 80%
    21:00 +7°C° 0 mm 4 mps 752 mmHg 78%
    22:00 +6°C° 0 mm 4 mps 752 mmHg 75%
    23:00 +6°C° 0 mm 4 mps 752 mmHg 78%

    1 June, Saturday

    Time Temperature Precipitation Wind Pressure Humidity
    00:00 +5°C° 0 mm 4 mps 753 mmHg 80%
    01:00 +4°C° 0 mm 4 mps 753 mmHg 83%
    02:00 +4°C° 0 mm 3 mps 753 mmHg 85%
    03:00 +4°C° 0 mm 3 mps 753 mmHg 88%
    04:00 +3°C° 0 mm 3 mps 754 mmHg 90%
    05:00 +5°C° 0 mm 4 mps 754 mmHg 86%
    06:00 +6°C° 0 mm 4 mps 754 mmHg 82%
    07:00 +8°C° 0 mm 4 mps 754 mmHg 79%
    08:00 +9°C° 0 mm 5 mps 754 mmHg 73%
    09:00 +10°C° 0 mm 5 mps 754 mmHg 68%
    10:00 +13°C° 0 mm 5 mps 754 mmHg 62%
    11:00 +12°C° 0 mm 5 mps 754 mmHg 62%
    12:00 +12°C° 0 mm 5 mps 754 mmHg 62%
    13:00 +11°C° 0 mm 6 mps 754 mmHg 63%
    14:00 +13°C° 0 mm 5 mps 754 mmHg 62%
    15:00 +13°C° 0 mm 5 mps 754 mmHg 61%
    16:00 +13°C° 0 mm 5 mps 754 mmHg 61%
    17:00 +12°C° 0 mm 4 mps 754 mmHg 66%
    18:00 +11°C° 0 mm 3 mps 755 mmHg 72%
    19:00 +11°C° 0 mm 3 mps 755 mmHg 77%
    20:00 +9°C° 0 mm 3 mps 755 mmHg 80%
    21:00 +8°C° 0 mm 3 mps 755 mmHg 82%
    22:00 +7°C° 0 mm 3 mps 755 mmHg 85%
    23:00 +7°C° 0 mm 2 mps 756 mmHg 86%
    Show more